Location: Chantarel
(45.1638°N, 1.7873°E)
Time: 12:34:19
(UTC+00:00)

Okean 3 - Pass Details

Date: 03 March 2021
Orbit: 577 x 600 km, 82.5° (Epoch: 11 April)

Event Time Altitude Azimuth Distance (km) Brightness Sun altitude
Rises 20:13:36 0° 346° (NNW) 2,832 7.4 -27.0°
Reaches altitude 10° 20:15:51 10° 340° (NNW) 1,930 6.5 -27.4°
Enters shadow 20:19:40 47° 281° (W) 787 4.4 -28.0°
